Dewpoint
57 57 56 56 54 55 55 55 55 54 54 53 54 55 56 57 58 56 52 54 55 57 56 50 49 48 45 45 45 44 39 36 36 34 34 36 34 35 32 26 26 26 27 27 30
57 57 56 57 56 56 56 55 55 55 55 54 54 56 56 58 54 52 56 58 57 55 49 47 45 44 43 44 44 42 39 38 36 35 35 36 35 34 31 27 25 26 28 30 24
58 58 57 56 56 56 56 55 55 55 56 56 56 57 57 57 50 50 59 57 56 53 47 47 45 42 42 43 42 41 38 38 37 36 36 36 34 34 32 31 25 25 27 31 27
57 57 57 56 56 56 55 55 55 55 55 56 57 57 58 54 38 46 58 55 53 48 45 42 41 41 40 40 42 38 40 39 38 38 35 34 33 32 32 28 28 27 29 31 31
57 57 57 56 56 56 55 55 55 54 54 56 57 58 53 48 47 45 54 51 45 41 38 40 40 39 39 40 40 39 39 37 37 37 35 35 33 31 31 26 27 27 29 30 28
57 57 56 57 56 55 55 55 55 54 53 56 56 58 50 43 44 44 47 41 39 39 36 38 39 39 37 35 39 35 36 35 36 35 34 33 32 31 30 25 24 27 28 28 21
57 58 58 57 56 55 55 55 55 54 53 55 56 53 49 46 40 38 33 34 36 35 33 35 35 37 34 32 34 30 31 25 32 34 31 28 25 25 29 22 21 24 26 25 20
58 58 58 58 56 55 55 55 54 54 53 55 55 50 46 47 41 34 33 33 33 33 34 35 34 31 30 30 27 27 24 21 22 31 23 22 18 17 25 22 19 17 15 24 23
57 57 57 58 57 56 55 55 54 53 52 54 50 48 41 46 38 37 32 31 31 32 32 32 31 28 27 24 21 22 18 18 20 29 22 19 16 18 22 23 22 18 14 23 24
55 56 57 57 57 56 55 54 52 50 51 51 49 43 42 37 39 38 34 32 31 31 29 30 29 25 23 22 14 18 18 17 19 25 20 17 16 17 18 23 23 22 15 23 24
53 54 55 56 56 55 50 45 39 42 44 41 41 40 36 36 33 32 32 30 30 30 25 28 26 22 23 22 21 18 17 14 14 20 20 19 17 17 18 17 20 23 21 21 24
51 52 53 53 56 55 48 43 36 37 32 38 41 41 34 32 29 30 30 27 27 26 26 25 23 24 24 23 22 17 15 13 14 16 18 14 14 17 19 17 17 19 22 17 16
51 52 52 53 54 50 46 43 41 39 32 31 34 38 39 31 28 27 29 27 26 25 25 23 22 24 23 24 20 15 14 14 14 14 14 12 13 14 15 16 16 18 18 18 15
51 51 51 52 50 47 44 46 42 41 29 24 30 30 35 31 30 27 29 27 26 25 24 23 21 22 20 18 18 15 15 15 15 12 10 15 11 11 11 14 14 14 13 13 22
51 51 51 50 48 43 42 42 43 41 20 23 29 30 31 30 28 27 30 23 23 22 21 21 19 19 17 17 17 15 17 15 15 13 11 11 10 11 10 13 14 15 15 16 25
49 50 51 48 49 47 43 44 43 30 15 24 25 26 27 26 25 24 25 24 23 19 19 18 19 18 17 18 17 17 15 17 16 13 8 11 11 10 9 10 15 15 19 22 21
50 50 49 47 43 47 47 44 30 22 25 24 23 26 27 25 23 22 22 22 18 16 16 17 15 17 18 16 17 16 15 12 12 9 11 14 9 10 10 11 15 15 20 20 20
49 49 48 46 48 47 46 36 23 22 24 25 24 25 26 25 23 22 21 21 21 21 19 17 14 16 17 16 14 14 17 16 10 17 19 6 10 9 8 10 16 20 20 16 16
48 44 45 44 47 47 40 27 24 26 28 30 23 22 23 24 24 22 21 20 22 22 19 17 15 16 17 15 16 14 15 18 16 14 10 10 10 10 8 16 18 19 16 14 15
42 41 42 46 47 45 35 29 28 29 33 33 28 24 22 21 23 23 21 21 21 24 27 22 13 16 16 16 15 14 16 14 13 6 11 14 13 10 7 14 18 18 16 14 15
43 37 39 45 47 39 29 30 29 31 31 32 32 32 26 24 23 24 25 23 22 23 27 21 17 14 15 14 14 14 13 19 18 17 13 11 12 11 9 10 17 18 16 15 15
41 32 42 47 34 33 30 34 34 30 31 32 33 33 33 26 24 25 24 26 26 27 23 24 19 13 14 18 18 16 17 20 16 9 8 13 12 15 10 10 14 16 16 15 15
36 35 43 44 29 27 33 33 34 31 32 31 32 31 34 33 27 25 28 29 29 27 27 27 17 10 14 16 18 16 19 17 13 15 11 11 10 14 11 10 10 13 15 14 14
33 29 33 34 34 28 28 30 31 35 34 36 33 32 32 32 32 29 24 27 27 29 34 29 21 16 14 13 15 10 15 21 18 14 15 13 14 11 11 11 11 10 11 11 12
33 31 34 28 30 32 33 31 30 32 36 35 35 32 33 30 33 29 24 25 27 32 28 24 19 19 21 22 17 14 15 16 15 16 15 14 15 12 12 11 11 12 13 14 15
33 33 34 33 30 27 30 31 32 32 35 34 33 34 34 32 32 31 27 25 24 25 26 26 20 22 20 23 20 19 19 21 19 18 16 17 16 19 14 14 14 13 14 15 16
37 40 34 33 32 29 29 26 32 32 33 32 34 33 33 33 34 36 32 33 29 26 21 21 21 17 15 19 19 17 19 19 20 20 19 15 17 18 17 16 17 16 16 16 16
Lifted_Index
7 7 7 7 7 7 7 8 8 9 9 9 9 9 8 7 7 7 6 6 6 6 7 7 8 8 7 7 6 6 6 6 6 6 5 5 5 6 6 6 5 6 6 8 9
6 7 7 7 7 7 7 7 8 8 8 8 8 8 7 7 6 6 6 5 6 7 7 8 8 8 7 7 6 6 6 6 6 6 5 5 5 5 6 5 5 6 6 8 9
6 6 7 7 7 7 7 7 7 7 7 7 7 7 7 6 6 5 5 5 6 7 7 7 7 7 7 6 6 6 6 6 6 6 5 5 5 5 5 5 6 6 6 8 9
6 6 7 7 7 8 8 8 8 7 7 7 6 6 7 6 6 5 5 6 7 7 7 7 7 7 6 6 6 6 6 6 6 5 5 4 4 4 5 5 6 6 7 8 9
6 6 6 6 7 8 8 8 8 8 7 6 6 6 6 7 6 6 6 7 8 8 7 7 7 7 6 6 5 5 5 5 5 5 5 4 4 4 4 5 6 7 7 8 9
4 5 5 6 6 7 8 8 8 8 7 6 6 6 6 7 7 7 7 8 8 8 7 7 7 6 6 5 5 5 5 5 5 5 5 5 5 5 5 6 6 6 7 8 9
3 3 3 4 5 6 7 8 8 8 8 7 6 6 6 7 7 8 8 8 9 9 8 7 6 6 6 6 6 5 5 5 5 6 6 7 6 6 7 7 7 7 7 8 8
2 2 2 2 3 5 6 7 7 8 8 7 6 6 6 7 7 8 8 9 10 10 9 8 7 6 7 6 6 6 5 4 6 7 7 7 6 7 9 9 8 8 8 8 9
2 2 1 1 2 3 4 5 7 7 7 7 7 7 7 7 7 8 9 10 11 11 10 9 7 7 7 6 5 4 4 4 5 7 7 6 6 8 9 10 9 9 9 9 9
3 3 2 1 1 1 2 4 5 6 6 7 7 8 8 7 7 8 9 11 11 11 11 9 7 6 6 5 4 4 3 3 4 6 6 6 6 8 9 10 10 9 9 9 9
4 3 2 1 1 1 2 3 4 4 5 6 7 7 7 7 7 8 9 11 11 10 9 8 6 5 6 6 6 5 4 4 5 6 6 6 6 8 9 9 9 10 10 9 9
4 4 3 2 1 1 1 2 2 3 4 5 6 6 6 6 7 8 9 10 10 9 8 7 5 5 6 7 6 5 4 4 5 6 6 6 5 7 8 8 9 10 10 10 10
3 3 3 2 1 1 1 1 1 2 2 3 4 5 5 5 6 7 8 9 9 8 8 7 6 6 6 6 6 5 5 5 5 6 6 5 4 5 6 7 8 10 10 10 10
2 2 2 2 1 1 0 0 1 1 1 2 3 4 4 5 5 6 7 8 8 8 8 7 7 6 6 6 5 5 6 6 6 5 5 4 3 3 5 6 7 9 10 10 10
2 1 1 1 1 0 -0 -0 1 1 1 2 3 3 3 4 5 5 6 7 8 8 8 8 7 7 6 6 6 6 7 7 6 5 4 3 3 3 4 5 7 8 9 10 11
1 1 1 1 0 -0 -0 -0 0 0 1 1 1 2 3 3 4 5 6 7 7 7 7 8 8 8 7 7 7 7 6 6 5 4 3 3 3 3 4 6 7 8 10 11 11
0 0 0 1 0 -0 -1 -0 -0 0 1 1 1 1 2 3 4 4 5 5 6 6 6 6 7 8 8 7 7 7 5 3 2 2 2 2 3 3 5 7 8 9 10 11 12
-0 -0 0 0 0 -0 -1 -1 -0 0 1 1 0 1 1 2 3 4 4 4 5 5 5 4 5 7 8 7 7 6 5 3 1 1 2 2 3 4 6 8 9 10 11 12 12
-0 0 0 0 0 -0 -1 -1 -0 1 1 1 1 1 1 2 3 3 4 5 6 6 5 4 4 6 8 8 7 6 5 4 3 2 2 2 3 4 6 8 9 10 11 11 11
0 0 0 0 -0 -0 -1 -0 0 0 0 1 1 1 1 2 3 3 4 5 6 6 6 5 5 6 7 8 7 7 6 5 4 2 1 1 2 4 6 7 8 9 10 11 11
0 0 0 -0 -0 -0 -0 0 0 0 0 0 1 1 1 2 2 3 4 5 5 6 6 5 5 5 6 6 7 7 6 5 4 3 1 1 2 4 6 7 8 9 10 11 11
-0 0 -0 -1 -0 0 0 0 0 0 0 0 1 1 1 2 2 3 3 4 4 5 6 5 5 4 5 6 7 7 6 6 5 4 3 2 3 6 7 8 8 9 10 11 11
0 0 0 -0 0 1 1 1 0 0 0 0 1 1 1 1 2 2 3 3 3 4 5 5 4 4 4 5 6 6 6 6 5 4 3 2 3 6 8 8 9 9 10 11 11
1 1 0 0 0 1 1 1 0 0 -0 -0 0 1 1 1 1 2 2 3 3 3 4 4 4 3 3 4 4 5 5 5 5 4 3 3 4 6 7 8 8 9 10 11 11
1 1 1 1 1 1 1 1 0 0 0 0 1 1 1 2 1 1 2 2 2 2 3 3 3 3 3 4 4 4 5 5 5 4 4 4 5 6 7 8 8 9 9 10 10
1 1 1 1 1 1 1 1 1 1 0 1 1 2 2 2 2 1 2 2 2 2 2 3 3 3 3 4 4 4 4 5 5 5 4 4 5 6 8 8 8 9 9 9 10
1 1 1 1 1 1 1 1 1 1 1 1 1 2 2 2 2 2 2 2 2 2 2 3 3 3 3 4 4 4 4 5 5 5 5 4 5 6 7 8 8 8 9 9 10